Content
SEND FEEDBACK

Daily
Averages
Monthly
Summary
Spain

ZARAGOZA, SPAIN


Home > Europe > Spain
Elevation: 846 feet     Latitude: 41 40N     Longitude: 001 01W

WEATHER
 
SELECT A DAY
Number of Records: 313,797;   Date Range: 7/1/96 - 7/29/14
 
SHARE

PRINT THIS DATA

[ ← Previous Day ]
WEATHER ALMANAC - JANUARY 1, 2013
[ Next Day → ]
[ °C ]   °F
Weather ElementAverageHighLow
Temperature46.5 °F55.4 °F (3:30 pm)39.2 °F (9:00 am)
Dewpoint40.7 °F44 °F (1:00 pm)37.4 °F (9:00 am)
Humidity80.3 %93 % (1:00 am)58 % (3:30 pm)
Barometer30.08 in30.21 in (11:30 pm)30.01 in (3:30 am)
Wind Speed9.3 mph19.6 mph (3:30 pm)
Weather ElementAverage
Visibility6.5 mi
Wind DirectionWSW (249.6 °)

Weather ElementTotal
Precipitation---
Heating Degree Days17.7 (Base 65)
Averaged from 51 records on January 1, 2013
WEATHER CONDITIONS BREAKOUT
WIND DIRECTION BREAKOUT
WEATHER BY HOUR - JANUARY 1, 2013
[ °C ]   °F
Local TimeTemperatureDewpointHumidityBarometerVisibilityWind DirectionWind SpeedGust SpeedPrecipitationEventsConditions
12:30 AM42.8 °F39.2 °F87 %30.06 in6.2 miVariable2.3 mphRainLight Rain
1:00 AM42.0 °F40.0 °F89 %30.09 in9.0 miENE (60°)5.8 mphRainLight Rain
1:00 AM41.0 °F39.2 °F93 %30.06 in6.2 miENE (70°)3.5 mphRainLight Rain
1:30 AM42.8 °F39.2 °F87 %30.04 in5.6 miVariable2.3 mphRainLight Rain
2:00 AM41.0 °F39.2 °F93 %30.04 in5.0 miENE (60°)3.5 mphRainLight Rain
2:30 AM41.0 °F39.2 °F93 %30.04 in5.0 miVariable2.3 mphRainLight Rain
3:00 AM42.8 °F39.2 °F87 %30.04 in5.0 miCalmRainLight Rain
3:30 AM44.6 °F39.2 °F81 %30.01 in5.6 miWest (280°)3.5 mphRainLight Rain
4:00 AM44.6 °F39.2 °F81 %30.01 in6.2 miWest (280°)3.5 mphRainLight Rain
4:30 AM44.6 °F39.2 °F81 %30.01 in6.2 miNorth (350°)4.6 mphScattered Clouds
5:00 AM42.8 °F39.2 °F87 %30.01 in6.2 miNNE (30°)3.5 mphScattered Clouds
5:30 AM41.0 °F39.2 °F93 %30.01 in5.6 miWNW (300°)4.6 mphRainLight Rain
6:00 AM42.8 °F41.0 °F93 %30.01 in5.6 miWest (280°)9.2 mphMostly Cloudy
6:30 AM42.8 °F39.2 °F87 %30.04 in5.6 miWest (280°)9.2 mphMostly Cloudy
7:00 AM43.0 °F40.0 °F86 %30.06 in7.0 miWest (280°)9.2 mphPartly Cloudy
7:00 AM41.0 °F39.2 °F93 %30.04 in6.2 miWNW (290°)8.1 mphMostly Cloudy
7:30 AM42.8 °F39.2 °F87 %30.04 in6.2 miWest (280°)3.5 mphMostly Cloudy
8:00 AM42.8 °F39.2 °F87 %30.04 in6.2 miWest (280°)8.1 mphMostly Cloudy
8:30 AM41.0 °F39.2 °F93 %30.04 in6.2 miWest (280°)5.8 mphScattered Clouds
9:00 AM39.2 °F37.4 °F93 %30.06 in6.2 miWest (270°)5.8 mphMostly Cloudy
9:30 AM41.0 °F39.2 °F93 %30.06 in6.2 miWest (260°)6.9 mphMostly Cloudy
10:00 AM42.8 °F41.0 °F93 %30.06 in6.2 miWest (280°)8.1 mphMostly Cloudy
10:30 AM46.4 °F41.0 °F81 %30.09 in6.2 miWest (280°)9.2 mphPartly Cloudy
11:00 AM48.2 °F41.0 °F76 %30.09 inWest (280°)12.7 mphClear
11:30 AM48.2 °F42.8 °F82 %30.09 inWest (280°)15.0 mphClear
12:00 PM50.0 °F42.8 °F76 %30.09 inWNW (290°)16.1 mphClear
12:30 PM50.0 °F42.8 °F76 %30.09 inWNW (290°)12.7 mphClear
1:00 PM52.0 °F44.0 °F64 %30.11 in6.0 miWNW (290°)11.5 mphScattered Clouds
1:00 PM51.8 °F42.8 °F71 %30.09 inWNW (290°)11.5 mphClear
1:30 PM53.6 °F42.8 °F67 %30.09 in6.2 miWNW (290°)13.8 mphPartly Cloudy
2:00 PM53.6 °F42.8 °F67 %30.09 in6.2 miNW (310°)16.1 mphPartly Cloudy
2:30 PM53.6 °F41.0 °F62 %30.09 in6.2 miWNW (300°)16.1 mphPartly Cloudy
3:00 PM53.6 °F41.0 °F62 %30.06 in6.2 miWNW (300°)16.1 mphScattered Clouds
3:30 PM55.4 °F41.0 °F58 %30.09 in6.2 miNW (310°)19.6 mphScattered Clouds
4:00 PM53.6 °F41.0 °F62 %30.09 in6.2 miWNW (300°)15.0 mphScattered Clouds
4:30 PM53.6 °F41.0 °F62 %30.09 in6.2 miWNW (300°)16.1 mphScattered Clouds
5:00 PM53.6 °F41.0 °F62 %30.12 in6.2 miWNW (300°)13.8 mphScattered Clouds
5:30 PM51.8 °F41.0 °F67 %30.12 in6.2 miNW (310°)12.7 mphScattered Clouds
6:00 PM50.0 °F41.0 °F71 %30.12 in6.2 miWNW (300°)3.5 mphScattered Clouds
6:30 PM48.2 °F41.0 °F76 %30.12 in6.2 miWest (280°)4.6 mphScattered Clouds
7:00 PM51.0 °F41.0 °F60 %30.14 in25.0 miWest (280°)5.8 mphScattered Clouds
7:00 PM48.2 °F41.0 °F76 %30.12 in6.2 miWNW (300°)8.1 mphScattered Clouds
7:30 PM48.2 °F41.0 °F76 %30.12 in6.2 miNW (310°)12.7 mphScattered Clouds
8:00 PM46.4 °F41.0 °F81 %30.12 in6.2 miWNW (300°)9.2 mphScattered Clouds
8:30 PM46.4 °F41.0 °F81 %30.15 in6.2 miWNW (290°)11.5 mphPartly Cloudy
9:00 PM44.6 °F41.0 °F87 %30.15 in6.2 miWNW (300°)12.7 mphPartly Cloudy
9:30 PM46.4 °F42.8 °F87 %30.18 in6.2 miWNW (290°)12.7 mphPartly Cloudy
10:00 PM44.6 °F41.0 °F87 %30.18 in6.2 miWNW (290°)15.0 mphPartly Cloudy
10:30 PM46.4 °F42.8 °F87 %30.18 in6.2 miWNW (290°)13.8 mphScattered Clouds
11:00 PM46.4 °F42.8 °F87 %30.18 in6.2 miWest (280°)12.7 mphScattered Clouds
11:30 PM46.4 °F42.8 °F87 %30.21 in6.2 miWNW (290°)12.7 mphRainLight Rain
Hourly data recorded from LEZG, located miles away from Zaragoza, Spain







STORIES FROM OUR PARTNERS